This is the latest recevied weather packets stored in our database for station/object K5UBE. If no packets are shown the sender has not sent any weather packets the latest 10 day(s).
| Time | Temp. | Humidity | Pressure | Rain* | Wind** | Luminosity | Snow |
|---|---|---|---|---|---|---|---|
| 1777775254 | 14.44° C | 42% | 1023.5 hPa | 0 mm | - | - | - |
| 1777774954 | 14.44° C | 41% | 1023.4 hPa | 0 mm | - | - | - |
| 1777774651 | 15° C | 40% | 1023.3 hPa | 0 mm | - | - | - |
| 1777774347 | 15° C | 39% | 1023.4 hPa | 0 mm | - | - | - |
| 1777774045 | 15.56° C | 39% | 1023.5 hPa | 0 mm | - | - | - |
| 1777773742 | 15.56° C | 38% | 1023.5 hPa | 0 mm | - | - | - |
| 1777773438 | 15.56° C | 37% | 1023.4 hPa | 0 mm | - | - | - |
| 1777773136 | 15.56° C | 36% | 1023.3 hPa | 0 mm | - | - | - |
| 1777772831 | 16.11° C | 36% | 1023.2 hPa | 0 mm | - | - | - |
| 1777772529 | 16.11° C | 36% | 1023.3 hPa | 0 mm | - | - | - |
| 1777772226 | 16.67° C | 34% | 1023 hPa | 0 mm | - | - | - |
| 1777771924 | 17.22° C | 33% | 1023 hPa | 0 mm | - | - | - |
| 1777771621 | 17.22° C | 33% | 1022.7 hPa | 0 mm | - | - | - |
| 1777771318 | 17.78° C | 33% | 1022.8 hPa | 0 mm | - | - | - |
| 1777771014 | 18.33° C | 33% | 1023 hPa | 0 mm | - | - | - |
| 1777770711 | 18.33° C | 32% | 1022.8 hPa | 0 mm | - | - | - |
| 1777770407 | 18.89° C | 31% | 1022.8 hPa | 0 mm | - | - | - |
| 1777770105 | 18.89° C | 31% | 1022.7 hPa | 0 mm | - | - | - |
| 1777769802 | 18.89° C | 30% | 1022.8 hPa | 0 mm | - | - | - |
| 1777769499 | 18.33° C | 31% | 1022.7 hPa | 0 mm | - | - | - |
| 1777769195 | 18.89° C | 30% | 1023 hPa | 0 mm | - | - | - |
| 1777768894 | 18.89° C | 30% | 1022.7 hPa | 0 mm | - | - | - |
| 1777768591 | 18.89° C | 30% | 1022.8 hPa | 0 mm | - | - | - |
| 1777768287 | 19.44° C | 30% | 1022.8 hPa | 0 mm | - | - | - |
| 1777767985 | 19.44° C | 29% | 1023 hPa | 0 mm | - | - | - |
* Rain latest hour (hover to see other rain measurements)
** Current wind speed in m/s (hover to see current wind gust speed)